OPS 4682 DEB, 38445

Orbit data source: Space-Track

OPS 4682 DEB, 38445 is space debris in LEO originally from a launch on Sat, 03 Apr 1965 UTC launched from the Air Force Western Test Range (AFWTR). Debris objects in space refer to the collection of defunct objects orbiting the Earth. Examples of debris include non-operational satellites, rocket bodies, and fragments generated from explosions, collisions, or faulty payload assembly.

Loading next visibility...
Identifier
38445, 1965-027FA
Orbit
LEO
Country
Flag of USUS
Related business
Manufacturer
Unknown
Mission
Spacecraft
Bus & Motor
Unknown
Mass
Unknown
Launch date (UTC)
1965-04-03 (61 years ago)
Launch vehicle
Unknown
Launch site
Air Force Western Test Range (AFWTR)
Object type
Payload
Rocket body
Debris
Shape & HBR
Unknown shape, 0.1 m
Radar Cross Section
Small (<0.1 m²)

Expand to show TLE details & history
Last TLE update: 4 days ago

TLE from 4 days ago
0 OPS 4682 DEB
1 38445U 65027FA  25337.35750024  .00000409  00000-0  14249-2 0  9995
2 38445  90.2374   2.3206 0029767 358.2689   1.8322 12.95315849578672
Epoch: 2025-12-03T08:34Z
TLE epoch observation values (Epoch: 2025-12-03T08:34:48.020Z)
Latitude
-0.0001°
Longitude
161.19106°
Altitude
1,260.581 km
Speed
7.236 km/s
True Right ascension
00h 09m 16s
True Declination
0° 00' 00"
Sunlit
Object was in daylight at epoch
Visualization orbit readout
Latitude
Unknown
Longitude
Unknown
Altitude
Unknown
Speed
Unknown
Apparent Right ascension
Unknown
Apparent Declination
Unknown
Sunlit
N/A
Visualization observer readout
Local Sidereal Time
15:16:55
Azimuth
Unknown
Elevation
Unknown
Doppler factor
Unknown
Orbital elements
Apogee altitude
1,300.418 km
Perigee altitude
1,254.84 km
Semi-major axis
7,655.766 km
Eccentricity
0.00298
Inclination
90.2374°
RAAN
2.3206°
Arg. of periapsis
358.2689°
True anomaly
1.84315°
Mean anomaly
1.8322°
Eccentric anomaly
1.83767°
Mean motion
3.24011 °/min
Orbital period
111.11 mins
BSTAR
0.0014249
Loading maneuver chart data...
Computing Atmospheric mass density...
Loading historical data...
Loading historical data...
Loading historical data...
Loading historical data...
Loading historical data...
Loading historical data...
Loading historical data...

Documentation

Showing up to 5 results
|